Kosmos-2569

operational
NORAD ID: 57517 Int'l Des: 2023-114 Owner: VVKOV/IACG Country: RU Constellation: GLONASS
MEOCIRCULAR

Über Kosmos-2569

Beschreibung wird geladen...

Live-Position

3D-Globus wird geladen...

Nächste Überflüge

Höhenverlauf

Altitude vs Time

uPlot chart will show altitude changes over time

Zweizeiliger Elementsatz

1 57517U 23114A 26034.04594690 .00000005 00000-0 00000+0 0 9992
2 57517 65.2230 77.1450 0012378 289.4582 70.4856 2.13103980 19409
Epoch: 3. Feb. 2026 • Age: 16 hours

Aktueller Status

Höhe 19159.8 km
Geschwindigkeit 3.95 km/s
Subsatellitenpunkt 35.25°N, 147.27°W
Startdatum 7. Aug. 2023
Alter 2.4 years
Typ other

Technische Details

Klassifizierung Payload
Masse 1645.00 kg
Trockenmasse 1200.00 kg
Gesamtmasse 1645.00 kg
Länge 6.00 m
Durchmesser 1.00 m
Spannweite 10.00 m
Form Box + 2 Pan
Hersteller RESH
Bus-Typ KAUR-4N
Phasenstatus In Orbit
Besitzer/Staat VVKOV/IACG/RU

Große Konstellationen

Loading constellations...